GEC1UB LOWW-EDDM

Flight info

Callsign GEC1UB
Flight time N/A
Altitude 30000
Route SOVIL DCT SITNI DCT BAGSI DCT MATIG DCT AMADI Q113 NAPSA NAPSA4A
Aircraft MD11/H-SDE1E2E3FGHIJ2J3J4J5M1RWXY/LB1D1

Departure

Time 2026-04-22 18:37
Airport Vienna International Airport (LOWW)

Arrival

Time N/A
Airport Munich Airport (EDDM)
Time Latitude Longitude Altitude Speed Heading
2026-04-22 18:13 48.11447 16.57143 631 ft 0 kts 208°
2026-04-22 18:33 48.11438 16.57136 617 ft 5 kts 207°
2026-04-22 18:33 48.11393 16.57105 632 ft 10 kts 205°
2026-04-22 18:33 48.11315 16.57067 634 ft 10 kts 176°
2026-04-22 18:33 48.11265 16.57114 632 ft 7 kts 128°
2026-04-22 18:34 48.11252 16.57147 639 ft 2 kts 118°
2026-04-22 18:34 48.11231 16.57202 637 ft 8 kts 124°
2026-04-22 18:34 48.11211 16.57223 639 ft 5 kts 154°
2026-04-22 18:34 48.11188 16.57237 638 ft 1 kts 165°
2026-04-22 18:35 48.11177 16.57230 635 ft 3 kts 200°
2026-04-22 18:35 48.11136 16.57201 640 ft 7 kts 205°
2026-04-22 18:35 48.11102 16.57174 639 ft 3 kts 215°
2026-04-22 18:35 48.11087 16.57157 642 ft 1 kts 221°
2026-04-22 18:36 48.11075 16.57129 639 ft 5 kts 242°
2026-04-22 18:36 48.11072 16.57081 639 ft 3 kts 277°
2026-04-22 18:36 48.11084 16.57024 641 ft 11 kts 292°
2026-04-22 18:36 48.11247 16.56515 637 ft 105 kts 296°
2026-04-22 18:37 48.11682 16.55173 778 ft 172 kts 297°
2026-04-22 18:37 48.12231 16.53397 1410 ft 201 kts 295°
2026-04-22 18:37 48.12458 16.52017 2074 ft 211 kts 279°
2026-04-22 18:37 48.11855 16.49201 3292 ft 207 kts 239°
2026-04-22 18:38 48.10999 16.47625 3779 ft 202 kts 234°
2026-04-22 18:38 48.10044 16.45940 4245 ft 233 kts 235°
2026-04-22 18:38 48.08954 16.43862 4781 ft 266 kts 237°
2026-04-22 18:39 48.06682 16.39331 5979 ft 278 kts 237°
2026-04-22 18:39 48.05519 16.36991 6570 ft 280 kts 237°
2026-04-22 18:39 48.04363 16.34639 7144 ft 281 kts 239°
2026-04-22 18:39 48.03513 16.32049 7717 ft 276 kts 261°
2026-04-22 18:40 48.03303 16.29222 8318 ft 274 kts 273°
2026-04-22 18:40 48.03321 16.26358 8934 ft 277 kts 276°
2026-04-22 18:40 48.03385 16.23459 9547 ft 280 kts 276°
2026-04-22 18:40 48.03453 16.20531 10170 ft 283 kts 276°
2026-04-22 18:41 48.03523 16.17497 10759 ft 305 kts 276°
2026-04-22 18:41 48.03597 16.14228 11347 ft 333 kts 276°
2026-04-22 18:41 48.03672 16.10634 11944 ft 358 kts 275°
2026-04-22 18:41 48.03740 16.06867 12564 ft 366 kts 275°
2026-04-22 18:42 48.03803 16.03029 13177 ft 372 kts 275°
2026-04-22 18:42 48.03864 15.99141 13811 ft 376 kts 275°
2026-04-22 18:42 48.03925 15.95201 14400 ft 381 kts 275°
2026-04-22 18:42 48.03985 15.91215 14946 ft 385 kts 275°
2026-04-22 18:43 48.04046 15.87180 15536 ft 389 kts 275°
2026-04-22 18:43 48.04107 15.83109 16130 ft 393 kts 275°
2026-04-22 18:43 48.04167 15.79010 16729 ft 396 kts 275°
2026-04-22 18:43 48.04225 15.74919 17339 ft 400 kts 275°
2026-04-22 18:44 48.04284 15.70737 17968 ft 405 kts 275°
2026-04-22 18:44 48.04342 15.66510 18596 ft 409 kts 275°
2026-04-22 18:44 48.04398 15.62232 19162 ft 413 kts 275°
2026-04-22 18:44 48.04454 15.57911 19729 ft 417 kts 275°
2026-04-22 18:45 48.04509 15.53549 20311 ft 421 kts 275°
2026-04-22 18:45 48.04562 15.49147 20901 ft 426 kts 274°
2026-04-22 18:45 48.04614 15.44690 21489 ft 431 kts 274°
2026-04-22 18:45 48.04665 15.40186 22105 ft 436 kts 274°
2026-04-22 18:46 48.04715 15.35636 22749 ft 440 kts 274°
2026-04-22 18:46 48.04770 15.31050 23390 ft 442 kts 274°
2026-04-22 18:46 48.04833 15.26427 24009 ft 446 kts 274°
2026-04-22 18:46 48.04902 15.21759 24569 ft 451 kts 274°
2026-04-22 18:47 48.04973 15.17104 25118 ft 456 kts 274°
2026-04-22 18:47 48.05046 15.12346 25694 ft 461 kts 274°
2026-04-22 18:47 48.05119 15.07532 26280 ft 465 kts 274°
2026-04-22 18:47 48.05191 15.02663 26855 ft 470 kts 274°
2026-04-22 18:48 48.05262 14.97747 27465 ft 476 kts 273°
2026-04-22 18:48 48.05331 14.92763 28092 ft 481 kts 273°
2026-04-22 18:48 48.05398 14.87730 28729 ft 486 kts 273°
2026-04-22 18:48 48.05456 14.82654 29200 ft 489 kts 273°
2026-04-22 18:49 48.05497 14.77573 29631 ft 489 kts 272°
2026-04-22 18:49 48.05532 14.72485 30065 ft 489 kts 272°
2026-04-22 18:49 48.05566 14.67468 30239 ft 488 kts 272°
2026-04-22 18:49 48.05598 14.62522 30254 ft 462 kts 272°
2026-04-22 18:50 48.05627 14.57789 30250 ft 448 kts 272°
2026-04-22 18:50 48.05658 14.53159 30263 ft 443 kts 272°
2026-04-22 18:50 48.05722 14.43961 30263 ft 442 kts 272°
2026-04-22 18:51 48.05778 14.34767 30266 ft 442 kts 272°
2026-04-22 18:51 48.05814 14.25666 29306 ft 440 kts 272°
2026-04-22 18:52 48.05824 14.21126 28549 ft 435 kts 272°
2026-04-22 18:52 48.05834 14.16618 27788 ft 432 kts 272°
2026-04-22 18:52 48.05845 14.12160 27070 ft 426 kts 272°
2026-04-22 18:52 48.05853 14.09186 26600 ft 422 kts 272°
2026-04-22 18:53 48.05807 14.04830 25898 ft 417 kts 266°
2026-04-22 18:53 48.05138 14.00686 25429 ft 413 kts 251°
2026-04-22 18:53 48.04031 13.96716 25051 ft 413 kts 246°
2026-04-22 18:53 48.02808 13.92832 24690 ft 411 kts 245°
2026-04-22 18:54 48.01560 13.88999 24376 ft 408 kts 245°
2026-04-22 18:54 48.00309 13.85195 24296 ft 407 kts 244°
2026-04-22 18:54 47.99058 13.81400 24282 ft 407 kts 244°
2026-04-22 18:54 47.97802 13.77599 24281 ft 407 kts 244°
2026-04-22 18:55 47.96551 13.73812 23974 ft 407 kts 244°
2026-04-22 18:55 47.95302 13.70036 23473 ft 404 kts 244°
2026-04-22 18:55 47.94059 13.66293 22903 ft 401 kts 245°
2026-04-22 18:55 47.92821 13.62590 22391 ft 396 kts 244°
2026-04-22 18:56 47.91766 13.58834 21901 ft 391 kts 258°
2026-04-22 18:56 47.91486 13.54922 21609 ft 382 kts 277°
2026-04-22 18:56 47.92052 13.51009 21235 ft 398 kts 295°
2026-04-22 18:56 47.93375 13.47373 20834 ft 400 kts 308°
2026-04-22 18:57 47.95009 13.44028 20423 ft 398 kts 311°
2026-04-22 18:57 47.96636 13.40688 20020 ft 398 kts 307°
2026-04-22 18:57 47.98070 13.37163 19609 ft 397 kts 302°
2026-04-22 18:57 47.99293 13.33468 19225 ft 397 kts 298°
2026-04-22 18:58 48.00356 13.29669 18829 ft 395 kts 295°
2026-04-22 18:58 48.01316 13.25837 18392 ft 393 kts 293°
2026-04-22 18:58 48.02219 13.21999 17897 ft 390 kts 292°
2026-04-22 18:58 48.03091 13.18178 17402 ft 387 kts 292°
2026-04-22 18:59 48.03951 13.14371 16930 ft 385 kts 292°
2026-04-22 18:59 48.04802 13.10590 16461 ft 383 kts 292°
2026-04-22 18:59 48.05637 13.06874 16000 ft 381 kts 292°
2026-04-22 18:59 48.06478 13.03129 15530 ft 379 kts 292°
2026-04-22 19:00 48.07316 12.99402 15088 ft 376 kts 292°
2026-04-22 19:00 48.08146 12.95700 14656 ft 375 kts 292°
2026-04-22 19:00 48.08945 12.91997 14289 ft 375 kts 289°
2026-04-22 19:00 48.09505 12.88191 13906 ft 375 kts 283°
2026-04-22 19:01 48.09906 12.84345 13487 ft 373 kts 281°
2026-04-22 19:01 48.10251 12.80512 13323 ft 372 kts 280°
2026-04-22 19:01 48.10597 12.76686 13295 ft 370 kts 283°
2026-04-22 19:01 48.11203 12.72969 13288 ft 368 kts 290°
2026-04-22 19:02 48.11993 12.69334 13280 ft 367 kts 292°
2026-04-22 19:02 48.12819 12.65721 13288 ft 367 kts 292°
2026-04-22 19:02 48.13634 12.62086 13294 ft 367 kts 291°
2026-04-22 19:02 48.14423 12.58455 13278 ft 367 kts 291°
2026-04-22 19:03 48.15184 12.54854 13278 ft 367 kts 290°
2026-04-22 19:03 48.15886 12.51167 13282 ft 370 kts 285°
2026-04-22 19:03 48.16291 12.47352 13290 ft 371 kts 279°
2026-04-22 19:03 48.16567 12.43510 13290 ft 371 kts 278°
2026-04-22 19:04 48.16827 12.39657 13286 ft 371 kts 279°
2026-04-22 19:04 48.17106 12.35815 13287 ft 371 kts 279°
2026-04-22 19:04 48.17406 12.31972 13278 ft 371 kts 279°
2026-04-22 19:04 48.17723 12.28134 13259 ft 370 kts 280°
2026-04-22 19:05 48.18048 12.24311 13038 ft 370 kts 280°
2026-04-22 19:05 48.18377 12.20501 12827 ft 363 kts 280°
2026-04-22 19:05 48.18690 12.16853 12615 ft 343 kts 280°
2026-04-22 19:05 48.18987 12.13391 12393 ft 326 kts 280°
2026-04-22 19:06 48.19271 12.10092 12192 ft 312 kts 281°
2026-04-22 19:06 48.19545 12.06931 11980 ft 307 kts 281°
2026-04-22 19:06 48.19820 12.03763 11568 ft 306 kts 280°
2026-04-22 19:07 48.20360 11.97520 10718 ft 298 kts 280°
2026-04-22 19:07 48.20623 11.94447 10300 ft 296 kts 280°
2026-04-22 19:07 48.20883 11.91397 9843 ft 293 kts 280°
2026-04-22 19:07 48.21140 11.88374 9392 ft 291 kts 279°
2026-04-22 19:08 48.21394 11.85372 8937 ft 289 kts 279°
2026-04-22 19:08 48.21645 11.82397 8497 ft 287 kts 279°
2026-04-22 19:08 48.21894 11.79438 8061 ft 284 kts 279°
2026-04-22 19:08 48.22137 11.76539 7632 ft 282 kts 279°
2026-04-22 19:09 48.22383 11.73591 7203 ft 280 kts 279°
2026-04-22 19:09 48.22621 11.70730 6787 ft 278 kts 279°
2026-04-22 19:09 48.22860 11.67852 6351 ft 277 kts 279°
2026-04-22 19:09 48.23096 11.65010 5963 ft 273 kts 279°
2026-04-22 19:10 48.23328 11.62195 5568 ft 270 kts 278°
2026-04-22 19:10 48.23556 11.59421 5187 ft 267 kts 278°
2026-04-22 19:10 48.23780 11.56692 4991 ft 257 kts 279°
2026-04-22 19:10 48.23998 11.54103 4971 ft 245 kts 279°
2026-04-22 19:11 48.24215 11.51577 4974 ft 243 kts 279°
2026-04-22 19:11 48.24427 11.49096 4957 ft 243 kts 279°
2026-04-22 19:11 48.24615 11.46585 4955 ft 243 kts 273°
2026-04-22 19:11 48.24507 11.44044 4958 ft 244 kts 264°
2026-04-22 19:12 48.24301 11.41519 4959 ft 244 kts 264°
2026-04-22 19:12 48.24091 11.38989 4952 ft 244 kts 264°
2026-04-22 19:12 48.23882 11.36482 4954 ft 237 kts 264°
2026-04-22 19:12 48.23682 11.34093 4941 ft 225 kts 264°
2026-04-22 19:13 48.23485 11.31757 4703 ft 226 kts 264°
2026-04-22 19:13 48.23295 11.29422 4441 ft 223 kts 267°
2026-04-22 19:13 48.23544 11.27171 4161 ft 218 kts 298°
2026-04-22 19:13 48.24531 11.25556 3974 ft 208 kts 334°
2026-04-22 19:14 48.25881 11.25116 3957 ft 203 kts
2026-04-22 19:14 48.27143 11.25927 3957 ft 199 kts 43°
2026-04-22 19:14 48.27874 11.27669 3978 ft 199 kts 69°
2026-04-22 19:14 48.28328 11.29653 3966 ft 201 kts 71°
2026-04-22 19:15 48.28629 11.30995 3956 ft 201 kts 71°
2026-04-22 19:15 48.29217 11.33620 3959 ft 201 kts 71°
2026-04-22 19:15 48.29663 11.35608 3958 ft 200 kts 71°
2026-04-22 19:15 48.30109 11.37592 3960 ft 201 kts 71°
2026-04-22 19:16 48.30555 11.39584 3957 ft 201 kts 71°
2026-04-22 19:16 48.31002 11.41576 3961 ft 201 kts 71°
2026-04-22 19:16 48.31446 11.43564 3969 ft 200 kts 72°
2026-04-22 19:16 48.31766 11.45610 3972 ft 201 kts 79°
2026-04-22 19:17 48.31966 11.47693 3971 ft 201 kts 82°
2026-04-22 19:17 48.32121 11.49779 3971 ft 201 kts 83°
2026-04-22 19:17 48.32278 11.51870 3970 ft 201 kts 82°
2026-04-22 19:17 48.32438 11.53967 3973 ft 201 kts 82°
2026-04-22 19:18 48.32595 11.56021 3972 ft 197 kts 82°
2026-04-22 19:18 48.32742 11.57946 3830 ft 177 kts 82°
2026-04-22 19:18 48.32881 11.59745 3553 ft 170 kts 82°
2026-04-22 19:18 48.33016 11.61499 3353 ft 166 kts 82°
2026-04-22 19:19 48.33140 11.63105 3097 ft 146 kts 83°
2026-04-22 19:19 48.33255 11.64596 2922 ft 141 kts 83°
2026-04-22 19:19 48.33366 11.66034 2758 ft 141 kts 83°
2026-04-22 19:19 48.33479 11.67495 2555 ft 142 kts 83°
2026-04-22 19:20 48.33593 11.68979 2364 ft 144 kts 83°
2026-04-22 19:20 48.33709 11.70477 2158 ft 144 kts 83°
2026-04-22 19:20 48.33824 11.71972 1908 ft 144 kts 83°
2026-04-22 19:20 48.33948 11.73464 1707 ft 144 kts 82°
2026-04-22 19:21 48.34056 11.74954 1536 ft 143 kts 83°
2026-04-22 19:21 48.34162 11.76336 1468 ft 112 kts 83°
2026-04-22 19:21 48.34231 11.77231 1473 ft 69 kts 83°